Terminal Aerodrome Forecast
Issued by NWS

Home | Current Version | Previous Version | Text Only | Print | Product List | Glossary On
Versions: 1 2 3 4 5 6 7 8 9 10 11 12 13 14 15 16 17 18 19 20 21 22 23 24 25 26 27 28
000
FTUS45 KSLC 040533
TAFENV
TAF
KENV 040533Z 0406/0506 32012G20KT P6SM SCT120 BKN200
     FM040700 VRB05KT P6SM SCT200
     FM041600 12007KT P6SM FEW090 SCT150
     FM050100 28012KT P6SM VCSH SCT080 BKN120
      AMD LTD TO CLD VIS AND WIND=

USA.gov is the U.S. government's official web portal to all federal, state and local government web resources and services.